Probability
0 0 0 1 2 2 2 1 0 0 0 0 0 0 0 1 2 3 3 3 3 3 3 2 2 3 3 1 0 0 0 0 0 0 0 0 0 0 0 0 0 0 0
0 0 0 0 1 1 1 0 0 0 0 0 0 0 0 1 2 3 3 3 3 3 3 2 1 2 2 2 1 0 0 0 0 0 0 0 0 0 0 0 0 0 0
0 0 0 0 0 0 0 0 0 0 0 0 0 0 0 1 2 3 3 3 3 3 3 2 1 1 1 1 1 0 0 0 0 0 0 0 0 0 0 0 0 0 0
0 0 0 0 0 0 0 0 0 0 0 0 0 0 0 1 2 3 3 3 3 3 3 3 2 1 0 0 0 0 1 1 1 0 0 0 0 0 0 0 0 0 0
0 0 0 0 0 0 0 0 0 0 0 0 0 0 0 1 2 2 3 3 3 3 3 3 2 1 0 0 0 0 1 2 2 1 0 0 0 0 0 0 0 0 0
0 0 0 0 0 0 0 0 0 0 0 0 0 0 0 0 1 1 1 3 3 3 3 1 1 0 0 0 0 0 1 2 2 2 1 0 0 0 0 0 0 0 0
0 0 0 0 0 0 0 0 0 0 0 0 0 0 0 0 0 0 1 2 3 3 2 1 0 0 0 0 0 0 0 1 1 2 2 1 0 0 0 0 0 0 0
0 0 0 0 0 0 0 0 0 0 0 0 0 0 0 0 0 0 0 1 2 1 1 0 0 0 0 0 0 0 0 0 0 1 1 1 0 0 0 0 0 0 0
0 0 0 0 0 0 0 0 0 0 0 0 0 0 0 0 0 0 0 0 0 0 0 0 0 0 0 0 0 0 0 0 0 0 0 0 0 0 0 0 0 0 0
0 0 0 0 0 0 0 0 0 0 0 0 0 0 0 0 0 0 0 0 0 0 0 0 0 0 0 0 0 0 0 0 0 0 0 0 0 0 0 0 0 0 0
0 0 0 0 0 0 0 0 0 0 0 0 0 0 0 0 0 0 0 0 0 0 0 0 0 0 0 0 0 0 0 0 0 0 0 0 0 0 0 0 0 0 0
0 0 0 0 0 0 0 0 0 0 0 0 0 0 0 0 0 0 0 0 0 0 0 0 0 0 0 0 0 0 0 0 0 0 0 0 0 0 0 0 0 0 0
0 0 0 0 0 0 0 0 0 0 0 0 0 0 0 0 0 0 0 0 0 0 0 0 0 0 0 0 0 0 0 0 0 0 0 0 0 0 0 0 0 0 0
0 0 0 0 0 0 0 0 0 0 0 0 0 0 0 0 0 0 0 0 0 0 0 0 0 0 0 0 0 0 0 0 0 0 0 0 0 0 0 0 0 0 0
0 0 0 0 0 0 0 0 0 0 0 0 0 0 0 0 0 0 0 0 0 0 0 0 0 0 0 0 0 0 0 0 0 0 0 0 0 0 0 0 0 0 0
0 0 0 0 0 0 0 0 0 0 0 0 0 0 0 0 0 0 0 0 0 0 0 0 0 0 0 0 0 0 0 0 0 0 0 0 0 0 0 0 0 0 0
0 0 0 0 0 0 0 0 0 0 0 0 0 0 0 0 0 0 0 0 0 0 0 0 0 0 0 0 0 0 0 0 0 0 0 0 0 0 0 0 0 0 0
0 0 0 0 0 0 0 0 0 0 0 0 0 0 0 0 0 0 0 0 0 0 0 0 0 0 0 0 0 0 0 0 0 0 0 0 0 0 0 0 0 0 0
0 0 0 0 0 0 0 0 0 0 0 0 0 0 0 0 0 0 0 0 0 0 0 0 0 0 0 0 0 0 0 0 0 0 0 0 0 0 0 0 0 0 0
0 0 0 0 0 0 0 0 0 0 0 0 0 0 0 0 0 0 0 0 0 0 0 0 0 0 0 0 0 0 0 0 0 0 0 0 0 0 0 0 0 0 0
0 0 0 0 0 0 0 0 0 0 0 0 0 0 0 0 0 0 0 0 0 0 0 0 0 0 0 0 0 0 0 0 0 0 0 0 0 0 0 0 0 0 0
0 0 0 0 0 0 0 0 0 0 0 0 0 0 0 0 0 0 0 0 0 0 0 0 0 0 0 0 0 0 0 0 0 0 0 0 0 0 0 0 0 0 0
0 0 0 0 0 0 0 0 0 0 0 0 0 0 0 0 0 0 0 0 0 0 0 0 0 0 0 0 0 0 0 0 0 0 0 0 0 0 0 0 0 0 0
0 0 0 0 0 0 0 0 0 0 0 0 0 0 0 0 0 0 0 0 0 0 0 0 0 0 0 0 0 0 0 0 0 0 0 0 0 0 0 0 0 0 0
0 0 0 0 0 0 0 0 0 0 0 0 0 0 0 0 0 0 0 0 0 0 0 0 0 0 0 0 0 0 0 0 0 0 0 0 0 0 0 0 0 0 0
0 0 0 0 0 0 0 0 0 0 0 0 0 0 0 0 0 0 0 0 0 0 0 0 0 0 0 0 0 0 0 0 0 0 0 0 0 0 0 0 0 0 0
Wind_Speed
5 4 3 2 2 1 1 2 2 2 3 3 4 5 5 6 6 6 7 6 7 7 7 8 9 7 6 5 5 5 6 6 8 5 2 2 2 2 1 2 2 2 2
6 5 4 4 4 3 2 2 2 2 2 3 3 3 4 5 5 6 7 7 7 8 8 8 9 6 8 6 6 7 6 6 7 7 3 2 3 2 2 2 1 1 2
5 5 5 4 4 4 4 3 2 2 2 2 2 3 4 4 4 5 5 5 6 7 7 8 8 8 8 6 6 6 6 5 5 5 5 2 2 1 1 1 1 1 1
4 4 4 4 3 3 4 4 3 2 2 2 2 3 3 3 3 3 4 5 5 5 5 5 6 8 8 8 7 7 5 5 5 5 4 3 2 1 1 1 2 1 2
4 4 4 4 3 3 4 4 3 3 2 2 2 2 2 2 2 2 3 3 4 4 4 4 4 5 7 7 6 6 6 5 5 4 4 3 3 1 2 1 2 2 2
4 4 4 4 4 3 3 4 4 3 2 2 2 2 2 2 3 4 3 3 3 3 4 3 3 4 4 6 7 7 7 7 6 5 4 4 4 3 2 2 2 2 2
4 4 4 3 4 4 3 3 3 3 3 3 2 2 3 3 3 3 3 3 3 3 3 3 2 2 2 3 3 3 4 5 7 6 5 5 4 4 3 3 3 3 3
4 4 4 4 4 4 4 4 4 3 3 3 3 3 3 4 4 3 3 3 3 3 3 3 3 2 2 2 1 1 2 2 3 3 4 4 3 2 3 4 3 2 1
5 5 4 4 5 4 5 4 4 3 3 3 3 4 4 4 4 4 3 2 2 2 2 2 3 3 4 4 3 2 2 1 1 1 1 1 1 1 2 2 2 1 1
6 6 5 5 5 5 5 5 3 3 4 3 4 4 4 4 4 4 2 1 2 2 1 1 2 3 4 4 3 3 3 2 1 1 1 1 1 1 2 2 2 2 1
6 6 5 5 5 5 5 4 3 3 3 3 4 4 3 3 4 4 3 1 1 2 2 2 2 3 3 3 3 3 4 2 2 2 1 1 0 0 0 0 1 2 2
6 6 5 5 4 4 3 4 3 3 3 3 3 3 3 2 3 3 3 3 2 2 2 2 2 3 3 3 3 4 4 3 2 2 1 1 1 1 0 0 0 1 0
6 6 6 5 4 4 3 4 3 3 3 3 2 3 3 2 2 3 3 3 3 2 2 3 3 3 2 2 3 3 2 2 2 2 2 2 1 1 1 1 1 2 2
6 6 5 5 4 4 3 3 3 3 3 3 3 3 3 3 2 2 1 1 1 1 0 1 1 1 1 1 1 1 1 2 2 3 2 1 1 1 1 1 1 0 1
5 5 5 4 4 4 3 3 4 4 4 4 4 3 4 4 5 5 3 2 2 2 1 0 0 0 0 0 0 0 1 1 1 2 2 2 1 1 1 0 1 0 1
4 4 3 3 3 3 3 4 5 5 6 6 6 5 4 5 6 6 5 5 4 3 1 1 2 2 2 2 2 1 1 1 2 2 2 2 2 2 1 1 1 1 1
4 4 3 3 3 3 3 3 4 4 4 5 5 5 5 6 6 5 4 4 3 2 1 2 2 2 2 2 2 2 2 1 1 1 2 2 2 2 2 1 1 1 1
4 4 4 3 3 3 3 3 3 4 4 4 4 5 5 5 5 5 4 2 2 1 2 2 3 2 2 2 2 2 2 1 1 1 1 2 2 2 2 2 2 2 1
4 3 3 3 3 3 3 3 3 3 3 3 3 4 4 4 4 4 3 1 2 2 2 2 2 2 2 2 2 2 2 2 2 2 2 2 2 2 2 2 2 3 2
3 4 3 2 2 2 2 2 2 3 3 3 3 3 3 2 2 2 1 1 1 2 2 2 2 2 2 2 2 2 2 2 2 2 2 2 2 2 3 3 3 3 2
3 3 3 2 2 2 2 2 2 2 3 3 3 4 5 3 2 2 2 2 2 2 2 2 2 2 2 2 3 3 3 3 3 3 3 3 2 2 2 3 3 2 2
2 2 2 2 2 2 2 2 2 2 3 3 3 4 5 3 2 2 2 2 2 2 2 2 2 2 3 3 3 3 3 3 3 3 3 3 3 3 2 2 2 2 2
2 2 2 2 2 2 2 2 2 2 3 3 3 3 2 2 2 2 2 2 2 2 2 2 3 2 2 2 3 3 4 4 4 4 4 4 3 3 3 3 3 3 3
2 2 2 2 2 2 2 2 2 2 3 3 3 3 3 3 2 3 2 2 2 2 2 2 3 3 4 3 2 3 3 4 4 4 6 5 4 4 4 3 3 4 3
2 2 2 2 2 2 2 2 2 2 2 3 3 3 3 2 2 2 2 2 2 2 2 2 2 3 4 4 4 3 4 5 4 4 4 4 5 5 4 4 4 3 3
2 2 2 2 2 2 2 2 2 2 3 3 3 3 3 3 3 2 2 2 2 2 2 2 2 3 3 3 4 4 5 5 5 5 4 4 5 4 4 4 4 4 4
Wind_Direction
356 343 342 333 312 304 283 256 242 234 224 219 224 224 220 219 218 218 221 218 222 228 224 221 225 220 220 219 218 220 223 226 249 257 245 230 224 233 265 259 253 260 276
352 356 356 356 351 336 306 294 287 262 248 236 222 225 230 229 222 220 224 224 224 228 230 227 227 222 224 222 218 221 225 224 237 253 256 239 238 232 248 260 268 274 271
354 355 357 358 356 342 322 310 307 297 288 267 239 233 231 231 232 225 224 227 231 234 233 232 229 220 225 224 221 222 224 224 227 239 249 242 244 231 249 273 274 277 297
345 347 346 343 336 329 326 320 316 309 294 291 271 245 234 230 234 238 239 236 236 237 236 238 234 222 221 220 221 222 220 222 225 231 238 238 241 231 195 249 280 281 296
330 330 328 328 330 332 329 320 310 307 303 293 291 283 252 234 234 231 240 248 244 243 240 237 241 236 228 222 219 216 212 217 220 225 232 232 223 213 229 233 263 285 288
309 310 319 324 326 325 324 318 313 307 308 304 286 281 278 268 256 244 236 240 246 246 247 247 243 234 234 225 218 214 211 214 219 219 225 229 230 222 219 221 240 262 271
300 303 307 309 311 313 316 313 307 306 302 291 282 272 272 273 279 266 237 234 237 242 241 237 248 256 236 240 215 196 212 218 215 217 221 226 223 212 203 216 227 235 250
293 296 300 303 304 307 305 299 302 305 296 291 283 275 270 273 273 272 248 234 233 236 237 232 226 220 214 210 206 210 228 232 220 221 220 228 230 205 199 210 218 229 264
291 293 294 295 295 295 293 291 294 293 292 292 287 279 275 278 271 273 271 252 244 248 247 236 226 222 202 174 175 196 213 235 68 100 126 136 145 164 163 151 166 167 253
289 292 294 291 285 283 282 285 287 283 281 286 285 279 274 275 271 272 265 241 248 255 260 250 230 222 206 177 183 194 214 225 174 112 80 53 51 86 116 168 189 195 205
300 300 297 292 284 280 281 280 282 284 283 280 284 290 280 271 264 259 253 231 230 252 258 255 237 211 212 199 195 207 211 199 182 183 191 180 150 93 111 147 206 203 203
303 299 296 296 293 288 281 282 279 269 271 277 284 297 298 287 270 267 269 253 232 237 256 262 245 223 224 221 213 194 179 164 163 174 188 203 211 213 230 29 72 73 148
303 298 296 296 296 291 280 277 279 266 256 261 255 266 285 291 281 279 267 258 244 243 239 234 252 241 234 226 192 187 174 169 168 181 206 220 221 209 158 123 79 72 49
288 290 293 295 298 295 284 269 262 258 255 253 249 254 269 279 275 268 256 260 244 231 234 193 220 216 191 138 137 181 200 195 187 197 205 204 168 164 170 167 184 84 54
286 286 289 289 291 294 290 277 273 270 253 254 253 246 248 257 256 258 263 255 227 215 222 339 331 180 183 143 115 159 186 177 188 195 190 186 175 168 166 119 141 132 180
288 286 284 287 288 287 290 298 287 279 276 269 265 266 271 269 275 269 266 262 248 215 187 210 222 218 213 212 214 223 215 208 205 199 195 192 189 187 181 166 171 185 207
280 282 283 281 278 280 279 280 291 303 295 285 277 272 269 273 275 272 268 261 242 199 201 213 224 227 225 217 215 216 222 222 218 206 203 198 189 186 184 187 191 200 219
283 279 274 274 275 277 276 278 279 284 297 303 305 291 281 278 281 281 275 259 243 217 209 216 224 225 226 225 218 217 212 192 195 206 202 199 194 190 191 197 202 203 210
282 280 278 280 280 279 276 278 280 281 280 290 307 311 317 309 308 301 290 243 220 224 220 224 226 219 217 217 214 207 200 200 197 196 197 197 199 193 197 199 203 200 201
294 291 289 278 280 280 272 270 273 273 276 279 281 288 303 315 302 306 305 238 223 231 227 223 226 218 208 204 201 195 192 196 194 197 200 199 198 197 198 200 201 201 209
297 294 294 292 283 274 268 267 269 269 272 275 278 280 282 279 273 277 279 253 229 229 225 221 222 219 212 201 195 193 195 204 204 198 195 196 193 197 198 196 197 198 195
296 293 294 290 291 283 276 273 270 268 271 279 291 291 292 288 273 263 261 268 263 246 228 219 224 225 219 207 199 196 202 207 203 194 193 192 188 190 191 193 191 189 185
298 303 306 304 300 293 291 282 273 270 274 278 283 294 294 277 268 264 262 263 261 257 240 218 220 229 224 215 206 202 207 213 206 194 191 195 193 190 189 195 195 192 197
300 297 299 303 303 293 286 289 287 281 279 284 287 288 292 283 269 266 272 276 272 264 247 231 225 219 219 218 213 210 213 212 201 196 193 193 193 190 188 191 197 198 203
298 295 296 292 286 282 284 285 287 289 291 290 289 289 292 292 280 271 273 275 284 281 268 248 234 222 215 216 218 218 216 216 209 195 186 183 187 190 187 190 194 195 202
301 296 291 289 287 283 278 281 284 286 287 290 289 289 290 290 290 288 281 274 278 279 276 265 241 232 224 222 221 220 217 215 206 197 186 180 183 189 184 188 191 197 201